Temp
9 8 9 13 11 11 11 11 12 13 13 13 13 13 14 14 13 13 13 15 15 14 13 12 11 10 11 10 10 10 11 10 10 10 10 10 11 11 11 10 10 11 11 10
8 9 12 10 10 10 10 11 12 13 13 13 13 14 14 14 14 14 14 14 15 14 13 12 12 12 12 11 10 10 11 11 11 10 10 10 10 10 10 10 10 10 11 10
8 10 10 10 10 9 10 11 12 13 13 13 13 13 13 14 13 13 14 13 14 14 15 14 13 14 14 13 11 11 12 12 11 11 10 10 10 10 11 11 11 10 10 10
7 9 10 10 10 10 10 12 12 13 12 12 13 13 13 14 14 14 14 14 14 14 14 14 14 14 14 13 12 12 12 12 12 11 11 11 11 11 12 11 11 10 10 10
7 9 9 8 10 10 10 11 11 12 11 11 13 13 14 14 14 15 15 14 14 15 15 15 14 14 14 14 13 12 12 11 11 11 11 11 11 11 11 11 11 11 10 10
7 8 9 10 9 9 10 10 11 11 11 11 12 12 14 13 15 16 15 15 15 14 15 15 15 14 14 14 13 12 12 12 11 11 10 11 11 11 11 11 11 11 11 11
7 7 8 9 10 9 9 10 10 9 9 10 13 13 13 14 15 16 16 16 16 15 15 16 15 14 14 13 13 13 12 12 12 11 11 11 11 11 11 11 11 11 11 11
4 6 8 9 9 10 10 10 10 6 7 11 13 12 14 14 16 16 17 17 16 16 15 15 16 15 15 14 14 13 13 12 12 12 12 11 11 11 11 11 11 11 11 11
2 4 8 8 9 9 10 10 11 12 11 12 13 14 14 14 15 15 16 16 16 16 15 15 16 16 16 15 14 13 13 13 13 12 12 12 12 12 12 11 11 12 11 11
-1 1 6 8 9 10 10 10 10 11 8 8 11 14 15 15 15 15 16 16 16 17 16 16 15 16 16 16 15 14 13 13 13 13 13 13 12 12 12 12 12 12 12 12
-1 -2 5 6 8 9 10 10 11 11 12 10 7 13 15 16 16 16 16 16 17 18 17 17 16 16 16 16 16 15 13 13 13 13 13 13 13 13 12 12 12 12 12 12
-1 -1 -2 6 9 9 9 10 11 12 10 12 12 12 15 16 17 17 17 17 17 18 18 17 17 16 16 16 15 15 14 12 13 13 13 14 13 13 13 13 13 12 12 12
-3 -2 -3 6 8 8 8 10 11 12 13 12 12 12 14 15 16 17 17 17 18 18 18 18 17 17 16 16 16 15 14 13 13 14 14 14 14 14 14 13 13 13 13 12
-3 -2 -2 -1 2 1 6 9 11 10 12 12 13 13 14 15 16 17 17 17 18 18 18 18 18 18 17 17 16 15 14 13 13 13 14 14 14 14 14 14 13 13 13 13
-3 -2 -1 -0 -1 2 4 6 10 9 11 13 13 14 14 15 16 16 17 18 18 18 19 18 19 19 18 17 16 16 14 13 14 14 15 15 15 14 14 14 14 13 13 13
-4 -4 -1 -1 0 4 5 7 7 10 12 12 13 14 15 15 15 16 17 17 18 20 19 19 19 19 18 17 16 17 16 15 14 14 15 15 15 15 15 14 14 14 14 14
-5 -4 -2 -2 3 4 4 5 7 10 12 13 13 14 14 15 16 16 17 18 19 19 19 19 19 19 18 17 17 17 17 16 16 15 15 15 16 16 16 15 15 15 15 14
-5 -5 -3 -2 2 5 4 4 5 9 8 11 11 13 15 16 15 16 17 18 19 19 19 19 19 19 18 17 17 17 17 17 16 16 16 16 15 15 15 15 15 15 14 15
-6 -3 -3 -4 -0 3 5 5 6 8 6 9 11 13 12 14 14 16 17 18 18 18 18 19 19 18 18 17 17 17 17 16 16 17 16 16 16 16 16 16 15 15 15 15
-5 -3 -4 -3 -2 2 3 4 5 5 5 5 8 11 11 13 13 13 14 16 18 18 18 18 18 18 18 17 17 17 17 16 17 16 16 16 15 15 15 15 15 15 15 15
-5 -5 -4 -4 -3 0 1 4 4 4 1 2 5 8 10 11 11 11 12 13 15 17 18 18 18 17 17 17 17 17 16 16 16 17 16 15 15 15 15 15 14 15 15 15
-4 -4 -3 -3 -1 -0 -0 4 5 1 1 2 3 4 7 7 8 9 11 12 13 14 15 16 16 16 16 16 16 16 16 16 16 16 16 16 16 16 16 16 16 16 16 16
-4 -5 -4 -4 -2 -1 -2 -1 1 1 2 2 2 3 4 5 6 8 9 11 12 13 14 14 14 14 15 15 15 16 16 16 16 16 16 16 16 16 16 16 17 17 17 17
-4 -4 -4 -3 -1 -1 -2 -1 0 2 1 2 2 3 4 5 6 7 8 9 11 12 13 14 14 14 14 14 14 14 14 15 15 15 15 15 16 16 17 17 16 16 16 16
-4 -4 -3 -3 -2 1 -0 -1 -0 2 1 1 2 3 4 5 5 6 8 9 9 11 12 14 14 14 14 14 14 14 14 15 15 15 15 15 16 15 15 15 15 15 15 15
-4 -4 -3 -3 -2 -2 1 0 -0 1 1 1 1 1 3 4 5 6 7 8 9 9 10 12 13 14 14 14 14 14 14 14 14 14 14 14 14 14 14 14 14 15 15 15
Height
3092 3093 3088 3092 3101 3111 3117 3121 3125 3128 3133 3136 3135 3139 3140 3143 3146 3148 3151 3153 3155 3156 3159 3163 3166 3170 3174 3179 3181 3185 3189 3194 3198 3201 3205 3207 3211 3215 3217 3219 3222 3223 3223 3224
3087 3080 3089 3098 3103 3108 3112 3116 3120 3126 3130 3132 3133 3133 3136 3137 3139 3143 3146 3149 3152 3154 3155 3158 3161 3165 3169 3174 3178 3182 3187 3192 3196 3200 3204 3208 3211 3214 3216 3219 3221 3222 3224 3225
3079 3081 3089 3095 3099 3103 3107 3111 3116 3122 3126 3129 3132 3133 3131 3132 3136 3140 3145 3149 3152 3153 3153 3156 3158 3161 3165 3170 3174 3179 3186 3189 3193 3197 3201 3205 3208 3211 3214 3217 3220 3222 3224 3225
3079 3083 3086 3088 3091 3098 3101 3107 3114 3119 3123 3124 3128 3126 3125 3128 3129 3132 3138 3143 3146 3149 3153 3155 3156 3158 3164 3168 3172 3176 3182 3187 3191 3194 3198 3202 3206 3210 3214 3217 3219 3221 3222 3223
3066 3074 3081 3080 3082 3093 3094 3105 3110 3115 3117 3120 3117 3123 3120 3122 3123 3124 3130 3137 3140 3145 3150 3153 3154 3157 3162 3167 3170 3173 3178 3183 3187 3190 3195 3199 3204 3209 3213 3215 3216 3218 3220 3222
3066 3074 3076 3076 3084 3089 3096 3104 3109 3111 3114 3109 3106 3114 3111 3112 3112 3119 3126 3130 3135 3140 3146 3150 3153 3157 3159 3164 3166 3170 3174 3177 3182 3187 3191 3196 3201 3206 3209 3212 3214 3217 3219 3221
3062 3061 3069 3075 3079 3086 3092 3099 3104 3107 3103 3095 3101 3103 3102 3107 3110 3113 3119 3124 3129 3134 3142 3148 3149 3150 3155 3158 3161 3165 3169 3174 3178 3182 3187 3192 3198 3202 3206 3209 3212 3215 3218 3220
3055 3057 3061 3066 3069 3076 3082 3089 3087 3094 3093 3091 3095 3086 3093 3103 3105 3108 3114 3118 3124 3130 3137 3143 3146 3147 3150 3154 3158 3160 3165 3169 3174 3178 3184 3190 3194 3199 3203 3206 3209 3212 3215 3217
3052 3048 3053 3058 3065 3071 3072 3074 3084 3087 3086 3086 3082 3084 3092 3099 3102 3105 3108 3113 3117 3124 3130 3136 3139 3143 3147 3150 3153 3157 3160 3165 3170 3174 3180 3186 3191 3195 3199 3203 3207 3210 3212 3214
3049 3046 3049 3050 3056 3062 3065 3075 3080 3079 3082 3084 3075 3076 3077 3089 3096 3100 3102 3107 3111 3117 3124 3130 3134 3140 3143 3147 3150 3154 3157 3161 3166 3171 3176 3182 3187 3192 3196 3199 3203 3207 3210 3212
3048 3045 3043 3045 3046 3049 3058 3060 3065 3073 3074 3072 3076 3066 3073 3085 3093 3097 3098 3103 3108 3111 3116 3123 3127 3135 3140 3144 3146 3149 3152 3156 3160 3166 3172 3177 3182 3187 3191 3195 3199 3202 3206 3208
3043 3044 3041 3037 3041 3046 3050 3053 3060 3060 3063 3066 3066 3062 3072 3080 3087 3092 3096 3100 3104 3108 3112 3116 3121 3127 3136 3138 3140 3143 3147 3151 3157 3163 3167 3172 3177 3182 3186 3191 3195 3199 3202 3204
3042 3043 3039 3033 3038 3041 3042 3046 3052 3056 3059 3058 3063 3054 3070 3076 3080 3086 3091 3094 3098 3102 3107 3112 3115 3120 3130 3133 3135 3140 3144 3148 3153 3158 3162 3166 3172 3177 3181 3186 3191 3194 3197 3200
3039 3038 3038 3033 3031 3039 3034 3035 3040 3045 3052 3054 3050 3064 3068 3071 3075 3079 3085 3087 3090 3094 3099 3104 3109 3114 3123 3129 3132 3135 3140 3145 3148 3153 3157 3162 3167 3172 3178 3183 3186 3190 3193 3195
3033 3030 3031 3029 3029 3032 3030 3031 3034 3038 3043 3043 3053 3055 3062 3066 3070 3072 3074 3076 3077 3079 3085 3094 3101 3107 3115 3123 3128 3131 3137 3140 3144 3148 3153 3158 3164 3169 3174 3178 3182 3186 3189 3192
3028 3025 3025 3022 3024 3025 3028 3033 3031 3033 3038 3044 3047 3049 3058 3062 3064 3064 3064 3064 3061 3063 3072 3086 3096 3103 3110 3118 3124 3128 3133 3137 3141 3146 3150 3155 3160 3165 3170 3174 3178 3182 3185 3188
3024 3023 3022 3015 3020 3022 3028 3027 3025 3028 3029 3038 3041 3046 3051 3055 3056 3057 3056 3053 3053 3060 3070 3080 3091 3098 3105 3113 3120 3126 3131 3136 3140 3144 3149 3153 3157 3162 3167 3171 3174 3177 3181 3184
3020 3019 3023 3016 3016 3016 3021 3024 3022 3019 3024 3028 3032 3040 3045 3048 3050 3050 3048 3049 3052 3059 3068 3078 3086 3094 3101 3109 3117 3123 3129 3134 3138 3142 3147 3151 3155 3160 3164 3168 3171 3175 3177 3180
3015 3015 3022 3020 3015 3012 3018 3021 3015 3017 3022 3022 3029 3036 3040 3044 3047 3047 3046 3048 3051 3057 3065 3074 3082 3090 3097 3105 3113 3120 3126 3132 3136 3140 3144 3148 3152 3157 3160 3163 3167 3170 3173 3176
3011 3015 3021 3019 3015 3011 3015 3013 3011 3015 3022 3023 3025 3029 3035 3039 3043 3047 3046 3047 3050 3056 3063 3071 3079 3087 3093 3101 3110 3116 3123 3128 3134 3138 3142 3145 3150 3154 3156 3160 3163 3165 3166 3169
3008 3014 3015 3016 3015 3010 3010 3007 3008 3015 3032 3026 3026 3027 3031 3037 3042 3046 3049 3050 3051 3055 3062 3069 3076 3082 3089 3097 3105 3112 3119 3124 3130 3133 3137 3141 3146 3149 3152 3154 3157 3159 3161 3163
3010 3013 3011 3011 3008 3010 3006 3005 3009 3018 3022 3025 3027 3028 3030 3035 3040 3044 3048 3052 3054 3057 3061 3067 3072 3078 3085 3093 3100 3107 3113 3118 3124 3128 3130 3135 3139 3142 3144 3147 3149 3151 3154 3156
3014 3014 3013 3013 3005 3004 3000 3007 3013 3017 3019 3024 3029 3031 3031 3034 3039 3044 3048 3051 3055 3058 3062 3067 3073 3078 3083 3089 3095 3102 3107 3112 3117 3121 3124 3128 3131 3134 3137 3140 3142 3144 3146 3148
3015 3013 3011 3006 3007 3007 3007 3009 3012 3016 3018 3023 3028 3031 3035 3035 3039 3043 3048 3051 3053 3057 3062 3066 3072 3077 3082 3086 3091 3096 3102 3107 3111 3115 3119 3122 3125 3128 3131 3133 3134 3136 3138 3141
3013 3013 3015 3017 3013 3008 3009 3012 3012 3015 3019 3022 3026 3030 3034 3037 3039 3042 3047 3051 3053 3056 3060 3064 3069 3075 3080 3085 3090 3094 3098 3101 3105 3108 3111 3114 3117 3119 3121 3123 3126 3128 3131 3133
3015 3010 3007 3002 3007 3010 3011 3014 3014 3018 3017 3020 3022 3025 3031 3035 3038 3040 3043 3048 3052 3055 3058 3061 3066 3071 3076 3081 3085 3089 3093 3095 3098 3101 3104 3107 3109 3111 3113 3115 3118 3120 3123 3125
Wind_Speed
38 40 49 46 48 41 27 29 34 27 21 19 29 30 27 25 29 29 24 20 17 19 21 24 26 28 27 25 27 33 32 30 28 25 23 20 17 15 12 10 8 8 8 7
35 50 42 39 43 44 38 21 33 32 26 15 26 31 33 31 29 32 30 25 19 18 24 25 25 27 25 27 28 32 33 32 29 26 20 18 15 13 11 12 11 8 8 8
41 40 39 40 41 46 43 39 33 36 20 19 15 30 31 37 35 34 35 27 22 22 17 19 26 24 22 26 33 33 33 32 30 26 24 22 21 19 17 15 11 9 9 8
39 42 20 39 44 45 46 45 38 34 25 14 24 12 31 39 41 38 37 35 30 23 24 22 21 25 25 25 29 31 31 31 29 27 26 24 22 19 13 12 12 12 12 10
46 34 36 25 46 44 49 44 38 34 28 23 31 13 18 34 41 36 39 42 38 24 22 21 24 15 19 25 27 29 29 29 29 27 26 25 23 20 17 15 15 15 14 13
31 37 24 48 29 38 45 31 35 34 23 20 38 22 13 38 40 32 33 39 42 40 28 21 23 24 17 22 26 27 29 30 30 28 27 27 24 21 20 19 17 15 14 13
35 44 37 25 34 28 36 30 13 10 10 13 29 26 31 18 28 35 31 34 39 39 37 25 28 29 25 23 27 28 29 30 31 30 30 29 26 24 23 21 17 15 13 11
14 23 38 40 41 37 34 39 13 9 4 12 27 15 21 37 19 26 30 31 36 35 43 33 25 25 22 25 25 28 29 30 32 31 31 31 29 27 25 23 20 18 14 13
6 17 17 41 38 38 41 45 43 19 10 7 19 27 37 27 26 29 27 33 39 40 42 38 33 24 17 21 24 27 29 29 31 31 32 33 31 29 27 24 22 20 18 16
7 16 25 24 44 35 43 32 37 34 9 6 6 19 27 36 34 31 27 29 34 36 41 40 41 24 17 18 18 22 24 28 28 30 33 32 31 29 28 26 25 22 20 19
13 8 24 24 23 49 38 43 39 37 25 11 2 19 33 33 37 38 35 29 22 19 34 42 42 34 23 19 19 21 23 23 27 30 32 33 32 31 29 28 27 25 23 21
13 7 15 29 31 28 31 39 38 27 25 32 27 32 12 30 23 32 38 35 28 28 25 35 40 38 28 24 23 25 24 25 25 28 31 32 32 32 31 30 28 27 25 24
6 7 10 19 29 22 13 26 41 40 27 36 27 31 44 28 21 30 24 30 27 27 29 31 38 40 36 27 24 26 27 26 23 29 32 32 33 32 32 30 29 29 26 26
15 20 22 16 14 14 19 19 32 29 37 28 43 35 34 19 31 25 29 23 26 30 33 37 32 35 38 32 26 26 29 26 26 29 33 32 32 31 30 29 28 27 25 24
19 18 27 34 33 33 29 25 21 27 32 39 38 37 37 36 34 30 32 33 33 40 42 44 38 33 34 37 27 23 28 29 28 29 30 30 30 29 28 27 27 26 26 23
12 12 21 34 27 34 24 17 22 22 31 31 34 38 37 32 34 36 36 31 30 44 44 42 38 34 35 38 30 23 24 22 21 18 20 23 25 25 25 24 23 23 24 24
15 6 8 19 10 12 15 7 7 17 16 34 41 32 36 26 27 31 30 19 27 37 41 43 36 33 36 37 32 27 26 21 18 18 16 16 17 17 18 19 20 20 18 19
19 8 6 17 10 7 15 17 25 24 19 22 23 25 20 24 17 20 20 17 25 30 35 36 35 33 33 38 33 32 28 20 18 19 20 20 20 20 20 20 20 20 21 21
20 12 5 6 13 18 16 9 20 23 18 16 16 22 19 23 19 16 19 23 28 31 33 34 35 35 34 40 35 34 29 23 17 16 18 19 17 16 19 22 25 26 27 26
13 11 11 4 5 5 11 12 29 29 21 24 23 25 27 24 20 16 20 25 30 28 27 27 35 37 37 40 37 30 32 27 23 19 18 19 16 15 15 12 13 17 25 28
10 9 22 22 10 4 3 17 28 7 10 19 24 27 25 21 25 28 27 25 25 29 30 30 34 40 39 38 43 36 35 29 29 32 28 23 21 22 20 18 17 18 22 24
7 1 1 4 6 5 3 22 16 22 19 16 19 25 28 29 27 29 29 30 30 28 26 26 29 35 38 36 40 43 40 39 36 35 35 30 28 27 26 24 24 22 23 24
9 7 4 5 3 11 14 25 29 24 21 16 14 18 26 28 30 27 27 30 32 34 34 33 30 30 32 32 33 36 38 39 39 38 36 35 33 31 30 29 32 27 31 30
12 14 12 4 9 7 6 14 20 21 18 16 12 12 14 21 25 26 27 27 28 32 33 34 32 31 29 31 31 31 33 34 36 37 36 36 37 36 35 37 35 32 29 29
26 27 17 17 9 4 3 7 17 26 15 12 11 7 10 14 19 21 22 25 26 29 31 34 33 31 29 26 25 25 27 29 31 33 36 37 38 39 40 39 37 34 33 32
28 28 26 23 20 15 3 17 15 23 22 16 11 8 6 9 12 17 19 19 20 24 27 32 32 32 31 27 25 26 28 33 35 35 34 35 37 39 39 38 38 38 37 37
Wind_Direction
198 200 207 207 206 209 214 217 216 219 218 234 237 239 238 237 236 228 214 207 203 206 193 204 204 206 207 199 205 201 200 196 196 198 200 191 178 176 173 173 194 199 188 192
204 213 220 213 212 213 214 194 212 212 216 235 241 237 236 243 245 234 215 209 196 188 192 199 204 202 207 201 198 199 198 196 195 198 202 202 195 185 185 188 190 200 201 208
214 223 219 219 217 215 220 221 212 211 218 234 233 232 237 247 249 241 232 221 209 208 211 205 205 208 202 189 186 193 198 197 195 195 201 204 201 198 197 196 197 198 208 212
229 224 235 229 221 216 221 217 217 217 234 237 219 246 229 237 241 236 228 223 212 211 217 224 219 207 210 191 188 188 194 198 198 196 202 205 209 209 199 190 197 201 210 213
227 228 214 219 223 215 223 218 223 222 242 253 239 250 239 238 226 232 228 227 215 211 216 217 227 211 203 203 194 191 192 194 199 198 203 208 211 209 210 208 209 209 210 213
232 233 231 230 233 226 222 222 229 236 250 246 247 237 227 211 224 233 227 229 222 219 221 220 223 224 205 205 199 197 199 195 199 203 207 214 215 210 209 214 216 216 219 222
240 236 227 231 228 224 220 216 221 235 221 234 239 242 236 242 237 235 238 227 221 224 226 213 209 214 211 210 203 200 203 206 201 202 208 213 216 216 215 216 222 224 221 223
257 247 234 216 229 219 216 209 200 188 186 223 233 220 231 235 230 236 235 231 229 225 222 220 206 203 213 213 209 204 206 207 208 204 208 212 214 215 218 218 218 222 219 218
271 247 228 218 223 221 217 218 216 250 231 210 234 243 243 229 231 236 231 228 234 239 235 223 227 208 206 214 216 210 204 208 211 208 210 212 214 214 216 219 220 218 216 217
285 294 243 228 219 225 221 212 208 225 193 218 250 217 229 224 227 230 233 234 237 237 229 227 226 216 197 200 206 210 210 211 212 213 212 211 215 215 216 217 218 217 216 217
279 303 243 234 221 214 216 219 217 220 230 219 241 236 237 231 227 229 234 240 240 221 221 227 225 216 209 201 204 204 208 207 211 217 217 212 212 214 216 216 217 218 218 217
268 286 280 236 210 206 219 221 217 207 212 225 240 245 206 236 232 229 237 242 245 239 223 219 224 225 210 211 202 205 202 206 213 216 217 215 214 212 215 217 218 221 220 222
282 226 305 250 228 233 237 216 225 226 226 224 226 240 234 238 240 233 239 231 235 240 228 208 223 230 212 215 209 205 205 204 207 214 215 215 216 215 215 218 219 222 223 225
315 239 251 256 243 292 252 205 207 224 223 226 231 239 233 235 238 226 221 234 248 244 234 214 220 223 216 214 215 209 205 206 205 214 218 215 217 218 216 215 218 222 227 228
313 244 250 260 277 252 248 247 220 226 229 221 233 239 242 250 239 247 226 244 257 248 234 213 219 216 212 211 211 213 211 205 206 212 215 215 215 220 223 222 222 224 228 232
287 248 251 270 258 235 251 257 265 226 226 239 242 246 252 257 258 263 257 267 254 221 204 198 209 213 204 205 203 197 189 190 200 209 213 215 216 219 223 227 230 230 228 232
283 233 280 282 214 208 239 264 256 194 210 220 231 245 242 253 257 259 259 247 193 195 195 192 205 202 199 198 201 188 185 192 203 212 215 215 207 206 208 214 220 224 223 221
262 224 265 280 304 185 156 114 108 153 155 193 214 220 215 235 241 255 254 206 175 184 186 196 195 193 194 197 198 195 193 195 204 212 213 218 221 222 224 225 226 225 228 226
239 200 242 264 322 129 156 150 128 130 99 124 148 202 202 220 245 247 211 193 176 187 189 193 192 194 195 198 196 197 196 181 188 200 209 212 204 212 226 235 239 240 238 236
205 170 225 277 276 170 191 144 139 123 89 102 135 158 166 182 182 172 174 179 182 184 183 189 200 202 201 202 197 194 197 186 201 210 212 210 214 220 226 230 235 243 242 240
169 230 238 256 253 130 201 133 145 157 107 84 114 150 163 175 165 153 147 157 180 192 195 201 202 202 204 205 201 197 199 201 204 213 225 222 230 238 242 249 243 236 240 243
93 310 293 256 203 133 67 141 153 125 118 105 112 129 143 145 147 154 154 153 152 164 179 191 198 205 211 213 206 208 212 216 223 225 236 238 237 242 246 252 251 243 232 234
52 4 302 280 62 91 57 103 121 130 130 128 119 131 140 148 159 164 165 163 162 160 161 166 175 185 192 199 206 215 223 227 226 227 230 233 237 240 253 252 258 244 238 241
52 33 2 28 75 70 107 142 133 142 122 136 129 132 145 150 155 167 175 172 167 168 170 172 174 177 184 190 195 199 209 215 220 226 230 233 238 241 241 252 252 254 253 258
35 32 32 33 20 97 160 192 182 166 154 137 140 152 143 158 159 163 175 180 176 177 182 186 189 192 194 196 203 209 212 217 223 229 232 233 234 236 239 244 250 252 254 258
29 27 20 6 5 356 319 220 225 207 192 183 169 161 185 172 174 170 170 178 185 185 188 193 196 202 206 210 216 224 230 234 238 239 241 243 246 247 248 250 253 258 262 264